,,,PA_Meas_PMT16A,,PR_Meas_QMR101_102,,RH_Meas_QMH101,,SR_Meas_QMS101,,TA_Meas_QMH101,,GenWind,,GenWind,
date,time,status,PA,status,PR,status,RH,status,SR,status,TA,status,DirAvg,status,SpdAvg,
2009-05-15, 00:00:04,VALID,997.527,VALID,0,VALID,92.8296,VALID,0,VALID,23.0183,VALID,51,VALID,0.108594,
2009-05-15, 00:01:04,VALID,997.481,VALID,0,VALID,92.6999,VALID,0,VALID,23.0378,VALID,51,VALID,0.110937,
2009-05-15, 00:02:04,VALID,997.465,VALID,0,VALID,92.4405,VALID,0,VALID,23.0573,VALID,47,VALID,0.3375,
2009-05-15, 00:03:04,VALID,997.48,VALID,0,VALID,92.3642,VALID,0,VALID,23.0786,VALID,47,VALID,0.230078,
2009-05-15, 00:04:04,VALID,997.458,VALID,0,VALID,92.3413,VALID,0,VALID,23.0786,VALID,45,VALID,0.488672,
2009-05-15, 00:05:04,VALID,997.442,VALID,0,VALID,92.3794,VALID,0,VALID,23.0769,VALID,223,VALID,0.642187,
2009-05-15, 00:06:04,VALID,997.461,VALID,0,VALID,92.3566,VALID,0,VALID,23.1159,VALID,223,VALID,0.523828,
2009-05-15, 00:07:04,VALID,997.414,VALID,0,VALID,92.1582,VALID,0,VALID,23.1762,VALID,223,VALID,0.164453,
2009-05-15, 00:08:04,VALID,997.422,VALID,0,VALID,91.9522,VALID,0,VALID,23.1549,VALID,204,VALID,0.255078,
2009-05-15, 00:09:04,VALID,997.436,VALID,0,VALID,91.7462,VALID,0,VALID,23.1549,VALID,168,VALID,0.459766,
2009-05-15, 00:10:04,VALID,997.411,VALID,0,VALID,90.8917,VALID,0,VALID,23.1744,VALID,103,VALID,0.695703,
2009-05-15, 00:11:04,VALID,997.392,VALID,0,VALID,90.5026,VALID,0,VALID,23.2347,VALID,64,VALID,0.651563,
2009-05-15, 00:12:04,VALID,997.405,VALID,0,VALID,90.7772,VALID,0,VALID,23.2329,VALID,41,VALID,0.622266,
2009-05-15, 00:13:04,VALID,997.4,VALID,0,VALID,90.3728,VALID,0,VALID,23.2152,VALID,18,VALID,0.892969,
2009-05-15, 00:14:04,VALID,997.375,VALID,0,VALID,90.6094,VALID,0,VALID,23.1176,VALID,17,VALID,0.726172,
2009-05-15, 00:15:04,VALID,997.375,VALID,0,VALID,90.968,VALID,0,VALID,23.0183,VALID,17,VALID,0.704687,
2009-05-15, 00:16:04,VALID,997.392,VALID,0,VALID,91.3571,VALID,0,VALID,22.9598,VALID,17,VALID,0.74375,
2009-05-15, 00:17:04,VALID,997.376,VALID,0,VALID,91.6928,VALID,0,VALID,22.9208,VALID,17,VALID,0.799609,
2009-05-15, 00:18:04,VALID,997.37,VALID,0,VALID,91.7767,VALID,0,VALID,22.8835,VALID,17,VALID,0.638281,
2009-05-15, 00:19:04,VALID,997.331,VALID,0,VALID,91.9674,VALID,0,VALID,22.8445,VALID,17,VALID,0.630078,
2009-05-15, 00:20:04,VALID,997.324,VALID,0,VALID,92.4023,VALID,0,VALID,22.8232,VALID,17,VALID,0.717969,
2009-05-15, 00:21:04,VALID,997.306,VALID,0,VALID,92.4252,VALID,0,VALID,22.8445,VALID,18,VALID,0.749219,
2009-05-15, 00:22:04,VALID,997.316,VALID,0,VALID,92.1811,VALID,0,VALID,22.8037,VALID,56,VALID,0.883984,
2009-05-15, 00:23:04,VALID,997.273,VALID,0,VALID,92.1048,VALID,0,VALID,22.8037,VALID,59,VALID,1.15039,
2009-05-15, 00:24:04,VALID,997.271,VALID,0,VALID,91.8606,VALID,0,VALID,22.8427,VALID,59,VALID,1.1957,
2009-05-15, 00:25:04,VALID,997.266,VALID,0,VALID,91.6394,VALID,0,VALID,22.8623,VALID,71,VALID,1.15586,
2009-05-15, 00:26:04,VALID,997.237,VALID,0,VALID,91.7843,VALID,0,VALID,22.9225,VALID,74,VALID,1.12266,
2009-05-15, 00:27:04,VALID,997.243,VALID,0,VALID,91.7004,VALID,0,VALID,22.9225,VALID,75,VALID,1.15937,
2009-05-15, 00:28:04,VALID,997.226,VALID,0,VALID,91.7385,VALID,0,VALID,22.9208,VALID,82,VALID,0.940234,
2009-05-15, 00:29:04,VALID,997.234,VALID,0,VALID,91.7996,VALID,0,VALID,22.9225,VALID,78,VALID,0.565625,
2009-05-15, 00:30:04,VALID,997.252,VALID,0,VALID,91.7767,VALID,0,VALID,22.9013,VALID,86,VALID,0.357422,
2009-05-15, 00:31:04,VALID,997.284,VALID,0,VALID,91.8759,VALID,0,VALID,22.8623,VALID,8,VALID,0.507422,
2009-05-15, 00:32:04,VALID,997.223,VALID,0,VALID,92.0971,VALID,0.112286,VALID,22.8818,VALID,282,VALID,0.827734,
2009-05-15, 00:33:04,VALID,997.258,VALID,0,VALID,92.2116,VALID,0,VALID,22.903,VALID,283,VALID,0.964844,
2009-05-15, 00:34:04,VALID,997.241,VALID,0,VALID,92.1048,VALID,0,VALID,22.942,VALID,264,VALID,0.496094,
2009-05-15, 00:35:04,VALID,997.244,VALID,0,VALID,91.998,VALID,0,VALID,22.9598,VALID,197,VALID,0.686719,
2009-05-15, 00:36:04,VALID,997.242,VALID,0,VALID,91.8759,VALID,0,VALID,23.0201,VALID,169,VALID,0.463281,
2009-05-15, 00:37:04,VALID,997.219,VALID,0,VALID,91.5936,VALID,0,VALID,23.0183,VALID,146,VALID,0.772266,
2009-05-15, 00:38:04,VALID,997.19,VALID,0,VALID,91.3952,VALID,0,VALID,23.0378,VALID,147,VALID,0.745703,
2009-05-15, 00:39:04,VALID,997.177,VALID,0,VALID,90.9756,VALID,0,VALID,23.0573,VALID,155,VALID,0.982813,
2009-05-15, 00:40:04,VALID,997.167,VALID,0,VALID,90.5026,VALID,0,VALID,23.1354,VALID,143,VALID,0.875,
2009-05-15, 00:41:04,VALID,997.173,VALID,0,VALID,90.0066,VALID,0,VALID,23.1939,VALID,122,VALID,0.832812,
2009-05-15, 00:42:04,VALID,997.169,VALID,0,VALID,89.587,VALID,0,VALID,23.2719,VALID,119,VALID,0.853516,
2009-05-15, 00:43:04,VALID,997.171,VALID,0,VALID,89.2894,VALID,0,VALID,23.311,VALID,115,VALID,0.900781,
2009-05-15, 00:44:04,VALID,997.16,VALID,0,VALID,89.1903,VALID,0,VALID,23.3305,VALID,115,VALID,0.633984,
2009-05-15, 00:45:04,VALID,997.193,VALID,0,VALID,89.3734,VALID,0,VALID,23.311,VALID,115,VALID,0.489844,
2009-05-15, 00:46:04,VALID,997.225,VALID,0,VALID,89.4344,VALID,0,VALID,23.311,VALID,115,VALID,0.201172,
2009-05-15, 00:47:04,VALID,997.219,VALID,0,VALID,89.6328,VALID,0,VALID,23.2915,VALID,115,VALID,0,
2009-05-15, 00:48:04,VALID,997.24,VALID,0,VALID,89.7472,VALID,0,VALID,23.2719,VALID,115,VALID,0,
2009-05-15, 00:49:04,VALID,997.241,VALID,0,VALID,89.7014,VALID,0,VALID,23.2524,VALID,115,VALID,0,
2009-05-15, 00:50:04,VALID,997.229,VALID,0,VALID,89.7549,VALID,0,VALID,23.2524,VALID,115,VALID,0.135547,
2009-05-15, 00:51:04,VALID,997.203,VALID,0,VALID,89.7549,VALID,0,VALID,23.2542,VALID,115,VALID,0.371484,
2009-05-15, 00:52:04,VALID,997.25,VALID,0,VALID,89.6862,VALID,0,VALID,23.2347,VALID,115,VALID,0.467578,
2009-05-15, 00:53:04,VALID,997.237,VALID,0,VALID,89.8693,VALID,0.112286,VALID,23.1744,VALID,115,VALID,0.592188,
2009-05-15, 00:54:04,VALID,997.229,VALID,0,VALID,90.0219,VALID,0,VALID,23.1354,VALID,115,VALID,0.761719,
2009-05-15, 00:55:04,VALID,997.247,VALID,0,VALID,90.0448,VALID,0,VALID,23.1371,VALID,111,VALID,0.68125,
2009-05-15, 00:56:04,VALID,997.235,VALID,0,VALID,90.0906,VALID,0,VALID,23.0769,VALID,110,VALID,0.303516,
2009-05-15, 00:57:04,VALID,997.258,VALID,0,VALID,90.1287,VALID,0,VALID,23.0378,VALID,110,VALID,0.0320312,
2009-05-15, 00:58:04,VALID,997.244,VALID,0,VALID,90.2508,VALID,0,VALID,23.0378,VALID,111,VALID,0.173047,
2009-05-15, 00:59:04,VALID,997.242,VALID,0,VALID,90.4568,VALID,0,VALID,23.0378,VALID,111,VALID,0.0839844,
2009-05-15, 01:00:04,VALID,997.259,VALID,0,VALID,90.5788,VALID,0,VALID,22.9988,VALID,111,VALID,0,
2009-05-15, 01:01:04,VALID,997.229,VALID,0,VALID,90.7925,VALID,0,VALID,22.9988,VALID,111,VALID,0.280859,
2009-05-15, 01:02:04,VALID,997.254,VALID,0,VALID,90.8306,VALID,0,VALID,22.9988,VALID,111,VALID,0.2,
2009-05-15, 01:03:04,VALID,997.199,VALID,0,VALID,90.9146,VALID,0,VALID,23.0201,VALID,111,VALID,0.296875,
2009-05-15, 01:04:04,VALID,997.184,VALID,0,VALID,91.09,VALID,0,VALID,22.9988,VALID,127,VALID,0.689062,
2009-05-15, 01:05:04,VALID,997.187,VALID,0,VALID,90.6323,VALID,0,VALID,23.0201,VALID,126,VALID,0.310937,
2009-05-15, 01:06:04,VALID,997.204,VALID,0,VALID,90.7849,VALID,0,VALID,22.9811,VALID,126,VALID,0.332422,
2009-05-15, 01:07:04,VALID,997.207,VALID,0,VALID,91.0977,VALID,0,VALID,22.9208,VALID,121,VALID,0.582422,
2009-05-15, 01:08:04,VALID,997.227,VALID,0,VALID,91.0977,VALID,0,VALID,22.942,VALID,110,VALID,0.562109,
2009-05-15, 01:09:04,VALID,997.245,VALID,0,VALID,91.1511,VALID,0,VALID,22.9225,VALID,111,VALID,0.537109,
2009-05-15, 01:10:04,VALID,997.26,VALID,0,VALID,91.2426,VALID,0,VALID,22.8835,VALID,111,VALID,0.592969,
2009-05-15, 01:11:04,VALID,997.236,VALID,0,VALID,91.3876,VALID,0,VALID,22.8427,VALID,111,VALID,0.501953,
2009-05-15, 01:12:04,VALID,997.26,VALID,0,VALID,91.6623,VALID,0,VALID,22.8427,VALID,111,VALID,0.404297,
2009-05-15, 01:13:04,VALID,997.227,VALID,0,VALID,91.8911,VALID,0,VALID,22.8445,VALID,111,VALID,0.498437,
2009-05-15, 01:14:04,VALID,997.201,VALID,0,VALID,92.0971,VALID,0,VALID,22.8037,VALID,111,VALID,0.427344,
2009-05-15, 01:15:04,VALID,997.209,VALID,0,VALID,92.204,VALID,0,VALID,22.8232,VALID,111,VALID,0.350781,
2009-05-15, 01:16:04,VALID,997.181,VALID,0,VALID,92.2268,VALID,0,VALID,22.8232,VALID,111,VALID,0.45,
2009-05-15, 01:17:04,VALID,997.192,VALID,0,VALID,92.1277,VALID,0,VALID,22.8445,VALID,111,VALID,0.548828,
2009-05-15, 01:18:04,VALID,997.197,VALID,0,VALID,91.9751,VALID,0,VALID,22.864,VALID,111,VALID,0.896094,
2009-05-15, 01:19:04,VALID,997.189,VALID,0,VALID,91.7538,VALID,0,VALID,22.8623,VALID,116,VALID,0.712891,
2009-05-15, 01:20:04,VALID,997.201,VALID,0,VALID,91.5554,VALID,0,VALID,22.903,VALID,116,VALID,0.558984,
2009-05-15, 01:21:04,VALID,997.199,VALID,0,VALID,91.5783,VALID,0,VALID,22.942,VALID,119,VALID,0.428125,
2009-05-15, 01:22:04,VALID,997.209,VALID,0,VALID,91.4639,VALID,0,VALID,22.9403,VALID,119,VALID,0.145313,
2009-05-15, 01:23:04,VALID,997.172,VALID,0,VALID,91.38,VALID,0,VALID,22.9403,VALID,119,VALID,0.269922,
2009-05-15, 01:24:04,VALID,997.18,VALID,0,VALID,91.2808,VALID,0,VALID,22.9598,VALID,166,VALID,0.461719,
2009-05-15, 01:25:04,VALID,997.166,VALID,0,VALID,91.1053,VALID,0,VALID,22.9793,VALID,168,VALID,0.332422,
2009-05-15, 01:26:04,VALID,997.157,VALID,0,VALID,90.8383,VALID,0,VALID,23.0396,VALID,168,VALID,0.244922,
2009-05-15, 01:27:04,VALID,997.119,VALID,0,VALID,90.6857,VALID,0,VALID,23.0396,VALID,170,VALID,0.533594,
2009-05-15, 01:28:04,VALID,997.118,VALID,0,VALID,90.556,VALID,0,VALID,23.0396,VALID,291,VALID,0.527734,
2009-05-15, 01:29:04,VALID,997.091,VALID,0,VALID,90.4415,VALID,0,VALID,23.0201,VALID,291,VALID,0.479688,
2009-05-15, 01:30:04,VALID,997.076,VALID,0,VALID,90.5636,VALID,0,VALID,22.9793,VALID,291,VALID,0.257422,
2009-05-15, 01:31:04,VALID,997.087,VALID,0,VALID,90.6704,VALID,0,VALID,23.0006,VALID,61,VALID,0.664453,
2009-05-15, 01:32:04,VALID,997.095,VALID,0,VALID,90.2355,VALID,0,VALID,23.0183,VALID,97,VALID,1.09375,
2009-05-15, 01:33:04,VALID,997.104,VALID,0,VALID,90.1134,VALID,0,VALID,23.0378,VALID,92,VALID,0.891016,
2009-05-15, 01:34:04,VALID,997.117,VALID,0,VALID,90.1516,VALID,0,VALID,23.0573,VALID,106,VALID,0.957812,
2009-05-15, 01:35:04,VALID,997.103,VALID,0,VALID,90.144,VALID,0,VALID,23.0378,VALID,108,VALID,0.735547,
2009-05-15, 01:36:04,VALID,997.106,VALID,0,VALID,90.1821,VALID,0.112286,VALID,23.0396,VALID,108,VALID,0.526563,
2009-05-15, 01:37:04,VALID,997.124,VALID,0,VALID,90.3957,VALID,0,VALID,23.0183,VALID,108,VALID,0.454297,
2009-05-15, 01:38:04,VALID,997.104,VALID,0,VALID,90.5331,VALID,0,VALID,22.9988,VALID,107,VALID,0.576172,
2009-05-15, 01:39:04,VALID,997.105,VALID,0,VALID,90.762,VALID,0,VALID,22.9793,VALID,101,VALID,0.808984,
2009-05-15, 01:40:04,VALID,997.081,VALID,0,VALID,90.7238,VALID,0,VALID,22.9988,VALID,95,VALID,0.791797,
2009-05-15, 01:41:04,VALID,997.044,VALID,0,VALID,90.6094,VALID,0,VALID,23.0183,VALID,91,VALID,0.838672,
2009-05-15, 01:42:04,VALID,997.021,VALID,0,VALID,90.3271,VALID,0,VALID,23.0769,VALID,78,VALID,0.843359,
2009-05-15, 01:43:04,VALID,997.039,VALID,0,VALID,90.0295,VALID,0,VALID,23.0769,VALID,78,VALID,0.791406,
2009-05-15, 01:44:04,VALID,997.038,VALID,0,VALID,90.0524,VALID,0,VALID,23.0769,VALID,79,VALID,0.807422,
2009-05-15, 01:45:04,VALID,997.053,VALID,0,VALID,89.999,VALID,0,VALID,23.0786,VALID,80,VALID,0.621094,
2009-05-15, 01:46:04,VALID,997.047,VALID,0,VALID,90.3042,VALID,0.112286,VALID,23.0378,VALID,80,VALID,0.697266,
2009-05-15, 01:47:04,VALID,997.007,VALID,0,VALID,90.3652,VALID,0,VALID,23.0591,VALID,75,VALID,0.778516,
2009-05-15, 01:48:04,VALID,996.948,VALID,0,VALID,90.3042,VALID,0,VALID,23.0378,VALID,62,VALID,0.929688,
2009-05-15, 01:49:04,VALID,996.952,VALID,0,VALID,90.3728,VALID,0,VALID,23.0573,VALID,56,VALID,1.21523,
2009-05-15, 01:50:04,VALID,996.925,VALID,0,VALID,89.9609,VALID,0,VALID,23.0378,VALID,45,VALID,1.35312,
2009-05-15, 01:51:04,VALID,996.924,VALID,0,VALID,90.1211,VALID,0,VALID,22.9793,VALID,43,VALID,1.30625,
2009-05-15, 01:52:04,VALID,996.906,VALID,0,VALID,90.266,VALID,0,VALID,22.9403,VALID,36,VALID,1.30039,
2009-05-15, 01:53:04,VALID,996.899,VALID,0,VALID,90.4491,VALID,0,VALID,22.8818,VALID,37,VALID,1.31758,
2009-05-15, 01:54:04,VALID,996.864,VALID,0,VALID,90.6246,VALID,0,VALID,22.8055,VALID,26,VALID,1.34609,
2009-05-15, 01:55:04,VALID,996.844,VALID,0,VALID,90.7696,VALID,0,VALID,22.7469,VALID,17,VALID,1.01875,
2009-05-15, 01:56:04,VALID,996.846,VALID,0,VALID,91.1434,VALID,0,VALID,22.7096,VALID,14,VALID,1.1918,
2009-05-15, 01:57:04,VALID,996.856,VALID,0,VALID,91.4486,VALID,0,VALID,22.6494,VALID,11,VALID,1.34141,
2009-05-15, 01:58:04,VALID,996.828,VALID,0,VALID,91.6317,VALID,0,VALID,22.5909,VALID,11,VALID,1.25586,
2009-05-15, 01:59:04,VALID,996.801,VALID,0,VALID,91.7691,VALID,0,VALID,22.5926,VALID,14,VALID,1.32461,
2009-05-15, 02:00:04,VALID,996.839,VALID,0,VALID,91.9598,VALID,0,VALID,22.5323,VALID,19,VALID,1.31836,
2009-05-15, 02:01:04,VALID,996.819,VALID,0,VALID,91.9369,VALID,0,VALID,22.5145,VALID,23,VALID,1.11367,
2009-05-15, 02:02:04,VALID,996.844,VALID,0,VALID,92.1811,VALID,0,VALID,22.4933,VALID,29,VALID,1.25586,
2009-05-15, 02:03:04,VALID,996.824,VALID,0,VALID,92.3718,VALID,0,VALID,22.4738,VALID,34,VALID,1.24805,
2009-05-15, 02:04:04,VALID,996.803,VALID,0,VALID,92.7075,VALID,0,VALID,22.495,VALID,36,VALID,1.20625,
2009-05-15, 02:05:04,VALID,996.848,VALID,0,VALID,92.7151,VALID,0,VALID,22.4738,VALID,36,VALID,1.09609,
2009-05-15, 02:06:04,VALID,996.809,VALID,0,VALID,92.7609,VALID,0,VALID,22.495,VALID,36,VALID,0.817969,
2009-05-15, 02:07:04,VALID,996.812,VALID,0,VALID,92.6999,VALID,0,VALID,22.4755,VALID,36,VALID,0.773047,
2009-05-15, 02:08:04,VALID,996.833,VALID,0,VALID,92.6465,VALID,0,VALID,22.4543,VALID,36,VALID,0.711719,
2009-05-15, 02:09:04,VALID,996.883,VALID,0,VALID,92.5397,VALID,0,VALID,22.4331,VALID,36,VALID,0.549219,
2009-05-15, 02:10:04,VALID,996.85,VALID,0,VALID,92.5778,VALID,0,VALID,22.4136,VALID,36,VALID,0.423828,
2009-05-15, 02:11:04,VALID,996.858,VALID,0,VALID,92.5854,VALID,0,VALID,22.4348,VALID,36,VALID,0.25,
2009-05-15, 02:12:04,VALID,996.832,VALID,0,VALID,92.677,VALID,0,VALID,22.3958,VALID,36,VALID,0.05625,
2009-05-15, 02:13:04,VALID,996.844,VALID,0,VALID,92.7838,VALID,0,VALID,22.3941,VALID,36,VALID,0,
2009-05-15, 02:14:04,VALID,996.83,VALID,0,VALID,92.9211,VALID,0,VALID,22.4153,VALID,36,VALID,0,
2009-05-15, 02:15:04,VALID,996.824,VALID,0,VALID,92.9364,VALID,0,VALID,22.4153,VALID,36,VALID,0,
2009-05-15, 02:16:04,VALID,996.83,VALID,0,VALID,92.9135,VALID,0,VALID,22.3941,VALID,36,VALID,0,
2009-05-15, 02:17:04,VALID,996.831,VALID,0,VALID,92.9288,VALID,0,VALID,22.3763,VALID,36,VALID,0,
2009-05-15, 02:18:04,VALID,996.845,VALID,0,VALID,93.0432,VALID,0,VALID,22.3958,VALID,41,VALID,0,
2009-05-15, 02:19:04,VALID,996.814,VALID,0,VALID,93.0814,VALID,0,VALID,22.3958,VALID,41,VALID,0,
2009-05-15, 02:20:04,VALID,996.803,VALID,0,VALID,93.1195,VALID,0,VALID,22.4153,VALID,73,VALID,0,
2009-05-15, 02:21:04,VALID,996.78,VALID,0,VALID,93.0127,VALID,0,VALID,22.4543,VALID,85,VALID,0,
2009-05-15, 02:22:04,VALID,996.762,VALID,0,VALID,92.7151,VALID,0,VALID,22.4721,VALID,85,VALID,0,
2009-05-15, 02:23:04,VALID,996.723,VALID,0,VALID,92.7151,VALID,0,VALID,22.5128,VALID,89,VALID,0,
2009-05-15, 02:24:04,VALID,996.733,VALID,0,VALID,92.5091,VALID,0,VALID,22.5306,VALID,109,VALID,0.199219,
2009-05-15, 02:25:04,VALID,996.687,VALID,0,VALID,92.4023,VALID,0,VALID,22.6104,VALID,132,VALID,0.423438,
2009-05-15, 02:26:04,VALID,996.681,VALID,0,VALID,92.1429,VALID,0,VALID,22.6477,VALID,132,VALID,0.482812,
2009-05-15, 02:27:04,VALID,996.662,VALID,0,VALID,91.8225,VALID,0,VALID,22.7274,VALID,131,VALID,0.554688,
2009-05-15, 02:28:04,VALID,996.623,VALID,0,VALID,91.4791,VALID,0,VALID,22.786,VALID,131,VALID,0.503906,
2009-05-15, 02:29:04,VALID,996.626,VALID,0,VALID,91.2197,VALID,0,VALID,22.825,VALID,131,VALID,0.38125,
2009-05-15, 02:30:04,VALID,996.599,VALID,0,VALID,91.0214,VALID,0,VALID,22.8445,VALID,131,VALID,0.2125,
2009-05-15, 02:31:04,VALID,996.583,VALID,0,VALID,90.823,VALID,0,VALID,22.8232,VALID,131,VALID,0.0105469,
2009-05-15, 02:32:04,VALID,996.583,VALID,0,VALID,90.7543,VALID,0,VALID,22.8232,VALID,131,VALID,0.105469,
2009-05-15, 02:33:04,VALID,996.598,VALID,0,VALID,90.7085,VALID,0,VALID,22.8037,VALID,131,VALID,0,
2009-05-15, 02:34:04,VALID,996.61,VALID,0,VALID,90.7696,VALID,0,VALID,22.8055,VALID,131,VALID,0.183203,
2009-05-15, 02:35:04,VALID,996.581,VALID,0,VALID,90.6475,VALID,0,VALID,22.7842,VALID,131,VALID,0,
2009-05-15, 02:36:04,VALID,996.603,VALID,0,VALID,90.7009,VALID,0,VALID,22.7647,VALID,131,VALID,0.130078,
2009-05-15, 02:37:04,VALID,996.583,VALID,0,VALID,90.8154,VALID,0,VALID,22.7257,VALID,131,VALID,0.235156,
2009-05-15, 02:38:04,VALID,996.591,VALID,0,VALID,90.9909,VALID,0,VALID,22.7257,VALID,129,VALID,0.374609,
2009-05-15, 02:39:04,VALID,996.588,VALID,0,VALID,90.9451,VALID,0,VALID,22.7062,VALID,92,VALID,0.421094,
2009-05-15, 02:40:04,VALID,996.622,VALID,0,VALID,91.0443,VALID,0,VALID,22.6884,VALID,62,VALID,0.547656,
2009-05-15, 02:41:04,VALID,996.637,VALID,0,VALID,91.1358,VALID,0,VALID,22.6672,VALID,37,VALID,0.569922,
2009-05-15, 02:42:04,VALID,996.643,VALID,0,VALID,91.2197,VALID,0,VALID,22.6672,VALID,42,VALID,0.584766,
2009-05-15, 02:43:04,VALID,996.65,VALID,0,VALID,91.1053,VALID,0,VALID,22.6672,VALID,45,VALID,0.307813,
2009-05-15, 02:44:04,VALID,996.669,VALID,0,VALID,90.968,VALID,0,VALID,22.6689,VALID,45,VALID,0.164844,
2009-05-15, 02:45:04,VALID,996.685,VALID,0,VALID,90.8764,VALID,0,VALID,22.6672,VALID,45,VALID,0,
2009-05-15, 02:46:04,VALID,996.696,VALID,0,VALID,90.7925,VALID,0,VALID,22.6689,VALID,45,VALID,0.194141,
2009-05-15, 02:47:04,VALID,996.721,VALID,0,VALID,90.8993,VALID,0,VALID,22.6689,VALID,45,VALID,0.334766,
2009-05-15, 02:48:04,VALID,996.713,VALID,0,VALID,91.0443,VALID,0,VALID,22.6689,VALID,45,VALID,0.413672,
2009-05-15, 02:49:04,VALID,996.722,VALID,0,VALID,91.0519,VALID,0,VALID,22.7079,VALID,102,VALID,0.510156,
2009-05-15, 02:50:04,VALID,996.746,VALID,0,VALID,90.8764,VALID,0,VALID,22.7257,VALID,119,VALID,0.435547,
2009-05-15, 02:51:04,VALID,996.719,VALID,0,VALID,90.6933,VALID,0,VALID,22.7647,VALID,119,VALID,0.478906,
2009-05-15, 02:52:04,VALID,996.702,VALID,0,VALID,90.4568,VALID,0,VALID,22.8055,VALID,119,VALID,0.461719,
2009-05-15, 02:53:04,VALID,996.691,VALID,0,VALID,90.3042,VALID,0,VALID,22.7842,VALID,119,VALID,0.421484,
2009-05-15, 02:54:04,VALID,996.65,VALID,0,VALID,90.0906,VALID,0,VALID,22.8445,VALID,103,VALID,0.499219,
2009-05-15, 02:55:04,VALID,996.664,VALID,0,VALID,89.9074,VALID,0,VALID,22.8427,VALID,103,VALID,0.630469,
2009-05-15, 02:56:04,VALID,996.634,VALID,0,VALID,89.8617,VALID,0,VALID,22.8427,VALID,103,VALID,0.602734,
2009-05-15, 02:57:04,VALID,996.643,VALID,0,VALID,89.6938,VALID,0,VALID,22.864,VALID,103,VALID,0.383203,
2009-05-15, 02:58:04,VALID,996.655,VALID,0,VALID,89.8769,VALID,0,VALID,22.8445,VALID,103,VALID,0.282813,
2009-05-15, 02:59:04,VALID,996.675,VALID,0,VALID,89.9685,VALID,0,VALID,22.8037,VALID,103,VALID,0.305078,
2009-05-15, 03:00:04,VALID,996.656,VALID,0,VALID,90.1363,VALID,0,VALID,22.7842,VALID,103,VALID,0.341797,
2009-05-15, 03:01:04,VALID,996.685,VALID,0,VALID,90.3118,VALID,0,VALID,22.7257,VALID,103,VALID,0.381641,
2009-05-15, 03:02:04,VALID,996.699,VALID,0,VALID,90.9985,VALID,0,VALID,22.6867,VALID,103,VALID,0.433594,
2009-05-15, 03:03:04,VALID,996.706,VALID,0,VALID,91.3647,VALID,0,VALID,22.6282,VALID,84,VALID,0.551172,
2009-05-15, 03:04:04,VALID,996.757,VALID,0,VALID,91.5402,VALID,0,VALID,22.6494,VALID,47,VALID,0.416797,
2009-05-15, 03:05:04,VALID,996.716,VALID,0,VALID,91.647,VALID,0,VALID,22.6299,VALID,47,VALID,0.344922,
2009-05-15, 03:06:04,VALID,996.713,VALID,0,VALID,91.6623,VALID,0,VALID,22.6104,VALID,47,VALID,0.178516,
2009-05-15, 03:07:04,VALID,996.711,VALID,0,VALID,91.6775,VALID,0,VALID,22.5696,VALID,47,VALID,0.185937,
2009-05-15, 03:08:04,VALID,996.721,VALID,0,VALID,91.7385,VALID,0,VALID,22.5714,VALID,47,VALID,0.125,
2009-05-15, 03:09:04,VALID,996.729,VALID,0,VALID,91.8683,VALID,0,VALID,22.5306,VALID,47,VALID,0.360547,
2009-05-15, 03:10:04,VALID,996.717,VALID,0,VALID,91.9751,VALID,0,VALID,22.5306,VALID,47,VALID,0.362891,
2009-05-15, 03:11:04,VALID,996.702,VALID,0,VALID,92.0285,VALID,0,VALID,22.5323,VALID,47,VALID,0.45,
2009-05-15, 03:12:04,VALID,996.695,VALID,0,VALID,92.0285,VALID,0,VALID,22.5128,VALID,47,VALID,0.253906,
2009-05-15, 03:13:04,VALID,996.676,VALID,0,VALID,91.792,VALID,0,VALID,22.4916,VALID,47,VALID,0.211719,
2009-05-15, 03:14:04,VALID,996.665,VALID,0,VALID,92.0132,VALID,0,VALID,22.4721,VALID,47,VALID,0.426172,
2009-05-15, 03:15:04,VALID,996.681,VALID,0,VALID,92.204,VALID,0,VALID,22.4331,VALID,47,VALID,0.362891,
2009-05-15, 03:16:04,VALID,996.664,VALID,0,VALID,92.2955,VALID,0,VALID,22.4543,VALID,36,VALID,0.428125,
2009-05-15, 03:17:04,VALID,996.692,VALID,0,VALID,92.3718,VALID,0,VALID,22.4136,VALID,36,VALID,0.387891,
2009-05-15, 03:18:04,VALID,996.702,VALID,0,VALID,92.3566,VALID,0,VALID,22.4153,VALID,36,VALID,0.331641,
2009-05-15, 03:19:04,VALID,996.711,VALID,0,VALID,92.3718,VALID,0,VALID,22.4153,VALID,36,VALID,0.260547,
2009-05-15, 03:20:04,VALID,996.717,VALID,0,VALID,92.4557,VALID,0,VALID,22.3746,VALID,36,VALID,0.40625,
2009-05-15, 03:21:04,VALID,996.737,VALID,0,VALID,92.5549,VALID,0,VALID,22.3551,VALID,36,VALID,0.412109,
2009-05-15, 03:22:04,VALID,996.756,VALID,0,VALID,92.6312,VALID,0,VALID,22.3763,VALID,36,VALID,0.236328,
2009-05-15, 03:23:04,VALID,996.747,VALID,0,VALID,92.4252,VALID,0,VALID,22.3356,VALID,36,VALID,0.233984,
2009-05-15, 03:24:04,VALID,996.786,VALID,0,VALID,92.3642,VALID,0,VALID,22.3161,VALID,36,VALID,0.0890625,
2009-05-15, 03:25:04,VALID,996.793,VALID,0,VALID,92.4939,VALID,0,VALID,22.2966,VALID,36,VALID,0.0429688,
2009-05-15, 03:26:04,VALID,996.821,VALID,0,VALID,92.6999,VALID,0,VALID,22.2966,VALID,37,VALID,0.428516,
2009-05-15, 03:27:04,VALID,996.825,VALID,0,VALID,92.6999,VALID,0,VALID,22.2966,VALID,78,VALID,0.530469,
2009-05-15, 03:28:04,VALID,996.832,VALID,0,VALID,92.7228,VALID,0,VALID,22.3356,VALID,125,VALID,0.890625,
2009-05-15, 03:29:04,VALID,996.831,VALID,0,VALID,92.3031,VALID,0,VALID,22.4331,VALID,136,VALID,0.836719,
2009-05-15, 03:30:04,VALID,996.787,VALID,0,VALID,91.8835,VALID,0,VALID,22.5323,VALID,137,VALID,0.810156,
2009-05-15, 03:31:04,VALID,996.76,VALID,0,VALID,91.4486,VALID,0,VALID,22.5892,VALID,137,VALID,0.575,
2009-05-15, 03:32:04,VALID,996.776,VALID,0,VALID,91.0977,VALID,0,VALID,22.6477,VALID,137,VALID,0.646094,
2009-05-15, 03:33:04,VALID,996.763,VALID,0,VALID,90.7925,VALID,0,VALID,22.7062,VALID,137,VALID,0.459766,
2009-05-15, 03:34:04,VALID,996.737,VALID,0,VALID,90.6323,VALID,0,VALID,22.7257,VALID,137,VALID,0.411328,
2009-05-15, 03:35:04,VALID,996.75,VALID,0,VALID,90.6017,VALID,0,VALID,22.7257,VALID,137,VALID,0.370703,
2009-05-15, 03:36:04,VALID,996.778,VALID,0,VALID,90.6017,VALID,0,VALID,22.7257,VALID,137,VALID,0.40625,
2009-05-15, 03:37:04,VALID,996.795,VALID,0,VALID,90.2889,VALID,0,VALID,22.6867,VALID,137,VALID,0.478125,
2009-05-15, 03:38:04,VALID,996.811,VALID,0,VALID,90.3728,VALID,0,VALID,22.6689,VALID,137,VALID,0.505859,
2009-05-15, 03:39:04,VALID,996.828,VALID,0,VALID,90.5788,VALID,0,VALID,22.5892,VALID,128,VALID,0.637109,
2009-05-15, 03:40:04,VALID,996.843,VALID,0,VALID,91.0595,VALID,0,VALID,22.5892,VALID,113,VALID,0.760938,
2009-05-15, 03:41:04,VALID,996.856,VALID,0,VALID,91.09,VALID,0,VALID,22.6104,VALID,112,VALID,0.78125,
2009-05-15, 03:42:04,VALID,996.907,VALID,0,VALID,90.6399,VALID,0,VALID,22.6477,VALID,110,VALID,0.812109,
2009-05-15, 03:43:04,VALID,996.953,VALID,0,VALID,90.2813,VALID,0,VALID,22.6672,VALID,101,VALID,0.976172,
2009-05-15, 03:44:04,VALID,996.978,VALID,0,VALID,90.3652,VALID,0,VALID,22.6867,VALID,101,VALID,1.02305,
2009-05-15, 03:45:04,VALID,996.991,VALID,0,VALID,90.3881,VALID,0,VALID,22.6867,VALID,101,VALID,1.01758,
2009-05-15, 03:46:04,VALID,997.044,VALID,0,VALID,90.1745,VALID,0,VALID,22.7062,VALID,98,VALID,1.03125,